TimePDT,TemperatureF,Dew PointF,Humidity,Sea Level PressureIn,VisibilityMPH,Wind Direction,Wind SpeedMPH,Gust SpeedMPH,PrecipitationIn,Events,Conditions,WindDirDegrees,DateUTC
12:53 AM,64.0,37.9,38,29.87,10.0,SSW,5.8,-,N/A,,Clear,200,2013-05-07 07:53:00
1:53 AM,62.1,37.0,39,29.86,10.0,South,6.9,-,N/A,,Clear,180,2013-05-07 08:53:00
2:53 AM,61.0,37.9,42,29.86,10.0,SSW,4.6,-,N/A,,Clear,200,2013-05-07 09:53:00
3:53 AM,60.1,37.9,44,29.86,10.0,SE,4.6,-,N/A,,Clear,130,2013-05-07 10:53:00
4:53 AM,60.1,37.0,42,29.87,10.0,SSW,6.9,-,N/A,,Mostly Cloudy,200,2013-05-07 11:53:00
5:53 AM,57.9,37.9,47,29.88,10.0,South,8.1,-,N/A,,Partly Cloudy,190,2013-05-07 12:53:00
6:53 AM,59.0,37.9,46,29.90,10.0,SSW,6.9,-,N/A,,Clear,200,2013-05-07 13:53:00
7:53 AM,60.1,39.0,46,29.91,10.0,SE,10.4,-,N/A,,Mostly Cloudy,130,2013-05-07 14:53:00
8:53 AM,63.0,39.0,41,29.91,10.0,SE,9.2,-,N/A,,Partly Cloudy,130,2013-05-07 15:53:00
9:53 AM,64.9,37.9,37,29.91,10.0,ESE,9.2,17.3,N/A,,Scattered Clouds,120,2013-05-07 16:53:00
10:53 AM,69.1,36.0,30,29.90,10.0,South,10.4,-,N/A,,Partly Cloudy,170,2013-05-07 17:53:00
11:53 AM,69.1,35.1,29,29.89,10.0,SW,9.2,-,N/A,,Mostly Cloudy,220,2013-05-07 18:53:00
12:53 PM,62.1,42.1,48,29.91,10.0,NNW,28.8,39.1,N/A,,Mostly Cloudy,340,2013-05-07 19:53:00
1:53 PM,64.9,41.0,42,29.90,10.0,NNW,25.3,35.7,N/A,,Scattered Clouds,330,2013-05-07 20:53:00
2:53 PM,62.1,41.0,46,29.91,10.0,NNW,19.6,28.8,N/A,,Partly Cloudy,330,2013-05-07 21:53:00
3:53 PM,68.0,37.0,32,29.88,10.0,NNW,13.8,-,N/A,,Partly Cloudy,340,2013-05-07 22:53:00
4:53 PM,69.1,35.1,29,29.88,10.0,North,17.3,20.7,N/A,,Clear,350,2013-05-07 23:53:00
5:46 PM,66.2,33.8,30,29.88,10.0,West,12.7,-,N/A,,Partly Cloudy,280,2013-05-08 00:46:00
5:53 PM,66.0,34.0,30,29.90,10.0,NW,12.7,-,N/A,,Clear,320,2013-05-08 00:53:00
6:53 PM,66.0,36.0,33,29.88,10.0,North,13.8,-,N/A,,Clear,350,2013-05-08 01:53:00
7:53 PM,64.0,37.0,37,29.91,10.0,NW,12.7,-,N/A,,Clear,320,2013-05-08 02:53:00
8:53 PM,63.0,37.9,40,29.92,10.0,NNW,10.4,-,N/A,,Clear,330,2013-05-08 03:53:00
9:53 PM,63.0,39.0,41,29.94,10.0,NNW,8.1,-,N/A,,Clear,330,2013-05-08 04:53:00
10:53 PM,59.0,41.0,51,29.94,10.0,North,11.5,-,N/A,,Partly Cloudy,350,2013-05-08 05:53:00
11:53 PM,57.9,39.9,51,29.96,10.0,North,9.2,-,N/A,,Scattered Clouds,360,2013-05-08 06:53:00